Minneapolis, MN

5:28 AM CDT on March 24, 2017 (GMT -0500)
Minneapolis-Saint Paul International

Weather History for KMSP - October, 2014

Change the Weather History Date:

Monday, October 6, 2014

  Actual Average Record
Temperature  
Mean Temperature 50 °F 53 °F  
Max Temperature 63 °F 63 °F 87 °F (2007)
Min Temperature 36 °F 43 °F 25 °F (1873)
Degree Days  
Heating Degree Days 15 12  
Month to date heating degree days 102 68  
Since 1 July heating degree days 233 241  
Cooling Degree Days 0 0  
Month to date cooling degree days 0 3  
Year to date cooling degree days 759 750  
Moisture  
Dew Point 36 °F    
Average Humidity 66    
Maximum Humidity 92    
Minimum Humidity 39    
Precipitation  
Precipitation T in 0.09 in 1.69 in (1941)
Month to date precipitation 1.59 0.58  
Year to date precipitation 33.51 25.83  
Snow  
Snow 0.00 in 0.00 in T in (2005)
Month to date snowfall 0.0 0.0  
Since 1 July snowfall 0.0 T  
Since 1 September snowfall 0.0 T  
Snow Depth 0.00 in    
Sea Level Pressure  
Sea Level Pressure 29.51 in    
Wind  
Wind Speed 9 mph (WSW)    
Max Wind Speed 20 mph    
Max Gust Speed 26 mph    
Visibility 10 miles    
Events      
T = Trace of Precipitation, MM = Missing Value Source: NWS Daily Summary

Daily Weather History Graph

Daily Weather History Graph

Search for Another Location

Airport or City:

Trip Planner

Search our weather history database for the weather conditions in past years. The results will help you decide how hot, cold, wet, or windy it might be!

Date:

Astronomy

Oct. 06, 2014 Rise Set
Actual Time 7:17 AM CDT 6:44 PM CDT
Civil Twilight 6:47 AM CDT 7:13 PM CDT
Nautical Twilight 6:13 AM CDT 7:47 PM CDT
Astronomical Twilight 5:39 AM CDT 8:21 PM CDT
Moon 5:44 PM CDT (10/6) 4:59 AM CDT (10/6)
Length of Visible Light 12h 25m
Length of Day
11h 27m
Waxing Gibbous, 96% of the Moon is Illuminated
Oct 6
Waxing Gibbous
Oct 8
Full
Oct 15
Last Quarter
Oct 23
New
Oct 30
First Quarter

Hourly Weather History & Observations

Time (CDT) Temp. Windchill Dew Point Humidity Pressure Visibility Wind Dir Wind Speed Gust Speed Precip Events Conditions
12:53 AM 39.9 °F 35.1 °F 36.0 °F 86% 29.56 in 10.0 mi WSW 6.9 mph - N/A   Clear
1:53 AM 39.0 °F 34.8 °F 37.0 °F 93% 29.56 in 10.0 mi WSW 5.8 mph - N/A   Clear
2:53 AM 37.9 °F 34.4 °F 36.0 °F 93% 29.56 in 10.0 mi WSW 4.6 mph - N/A   Clear
3:53 AM 37.9 °F 35.5 °F 36.0 °F 93% 29.56 in 10.0 mi WSW 3.5 mph - N/A   Clear
4:53 AM 37.0 °F 33.3 °F 34.0 °F 89% 29.56 in 10.0 mi WSW 4.6 mph - N/A   Partly Cloudy
5:53 AM 36.0 °F 31.1 °F 33.1 °F 89% 29.56 in 10.0 mi WSW 5.8 mph - N/A   Clear
6:53 AM 36.0 °F 30.3 °F 32.0 °F 86% 29.56 in 9.0 mi WSW 6.9 mph - N/A   Partly Cloudy
7:53 AM 36.0 °F 30.3 °F 33.1 °F 89% 29.57 in 10.0 mi SW 6.9 mph - N/A   Partly Cloudy
8:53 AM 37.9 °F 32.1 °F 34.0 °F 86% 29.57 in 10.0 mi SW 8.1 mph - N/A   Partly Cloudy
9:53 AM 41.0 °F 34.7 °F 34.0 °F 76% 29.57 in 10.0 mi WSW 10.4 mph - N/A   Clear
10:53 AM 45.0 °F 38.5 °F 34.0 °F 65% 29.56 in 10.0 mi SW 13.8 mph - N/A   Clear
11:53 AM 48.0 °F - 34.0 °F 58% 29.54 in 10.0 mi WSW 13.8 mph 20.7 mph N/A   Clear
12:53 PM 52.0 °F - 35.1 °F 53% 29.51 in 10.0 mi WSW 15.0 mph 21.9 mph N/A   Partly Cloudy
1:53 PM 55.0 °F - 37.0 °F 51% 29.48 in 10.0 mi WSW 13.8 mph 21.9 mph N/A   Mostly Cloudy
2:53 PM 59.0 °F - 39.0 °F 48% 29.46 in 10.0 mi West 15.0 mph 25.3 mph N/A   Mostly Cloudy
3:53 PM 61.0 °F - 37.9 °F 42% 29.43 in 10.0 mi WSW 15.0 mph 24.2 mph N/A   Scattered Clouds
4:53 PM 62.1 °F - 37.0 °F 39% 29.44 in 10.0 mi WNW 17.3 mph 21.9 mph N/A   Mostly Cloudy
5:53 PM 61.0 °F - 37.9 °F 42% 29.44 in 10.0 mi WSW 9.2 mph - N/A   Mostly Cloudy
6:53 PM 59.0 °F - 37.9 °F 46% 29.44 in 10.0 mi SW 5.8 mph - N/A   Mostly Cloudy
7:53 PM 57.9 °F - 37.0 °F 46% 29.44 in 10.0 mi SW 6.9 mph - N/A   Mostly Cloudy
8:53 PM 57.9 °F - 35.1 °F 42% 29.44 in 10.0 mi WSW 12.7 mph - 0.00 in   Mostly Cloudy
9:53 PM 55.9 °F - 37.0 °F 49% 29.45 in 10.0 mi West 8.1 mph - 0.00 in   Scattered Clouds
10:53 PM 53.1 °F - 37.0 °F 55% 29.46 in 10.0 mi WSW 6.9 mph - N/A   Partly Cloudy
11:53 PM 51.1 °F - 37.9 °F 61% 29.48 in 10.0 mi SW 5.8 mph - N/A   Scattered Clouds